IW1QLH-13 Weather Reports


Display with metric or nautical units.
time (UTC)temp
F
wind
direction
speed
MPH
gust
MPH
rain 1hr
in
rain 24hr
in
rain mn
in
humidity
%
barometer
mb
20260504203910 0 1.0 4.0 0.00 0.00 0.00 1008.5
20260504202841 0 0.0 2.0 0.00 0.00 0.00 1008.5
20260504201811 0 0.0 1.0 0.00 0.00 0.00 1008.4
20260504200741 0 1.0 4.0 0.00 0.00 0.00 1008.3
20260504195710 0 2.0 4.0 0.00 0.00 0.00 1008.5
20260504194640 0 0.0 2.0 0.00 0.00 0.00 1008.5
20260504193612 0 0.0 4.0 0.00 0.00 0.00 1008.4
20260504192543 0 2.0 6.0 0.00 0.00 0.00 1008.8
20260504191512 0 1.0 3.0 0.00 0.00 0.00 1008.9
20260504190443 0 1.0 2.0 0.00 0.00 0.00 1008.9
20260504185412 0 2.0 3.0 0.00 0.00 0.00 1008.6
20260504184344 0 1.0 3.0 0.00 0.00 0.00 1008.5
20260504183303 0 0.0 3.0 0.00 0.00 0.00 1008.6
20260504182233 0 1.0 4.0 0.00 0.00 0.00 1008.2
20260504181201 0 1.0 4.0 0.00 0.00 0.00 1008.3
20260504180133 0 1.0 4.0 0.00 0.00 0.00 1008.6
20260504175104 0 1.0 1.0 0.00 0.00 0.00 1008.6
20260504174034 0 0.0 2.0 0.00 0.00 0.00 1008.6
20260504173004 0 0.0 4.0 0.00 0.00 0.00 1008.6
20260504171934 0 1.0 3.0 0.00 0.00 0.00 1008.7
20260504170903 0 2.0 4.0 0.00 0.00 0.00 1008.7
20260504150255 0 4.0 11.0 0.00 0.00 0.00 1009.2
20260504141022 0 5.0 16.0 0.00 0.00 0.00 1009.3
20260504130713 0 4.0 13.0 0.00 0.00 0.00 1009.7
20260504110117 0 4.0 9.0 0.00 0.00 0.00 1010.3
20260504081302 0 3.0 4.0 0.00 0.00 0.00 1010.4
20260504080233 0 4.0 11.0 0.00 0.00 0.00 1010.4
20260504050359 0 0.0 6.0 0.00 0.00 0.00 1009.5
20260504045330 0 0.0 2.0 0.00 0.00 0.00 1009.7
20260504044301 0 0.0 1.0 0.00 0.00 0.00 1009.7
20260504043233 0 0.0 1.0 0.00 0.00 0.00 1009.7
20260504042204 0 0.0 1.0 0.00 0.00 0.00 1009.7
20260504041135 0 0.0 1.0 0.00 0.00 0.00 1009.7
20260504040106 0 0.0 0.0 0.00 0.00 0.00 1009.5
20260504035036 0 0.0 1.0 0.00 0.00 0.00 1009.7
20260504034008 0 0.0 0.0 0.00 0.00 0.00 1009.6
20260504032938 0 0.0 1.0 0.00 0.00 0.00 1009.5
20260504031905 0 0.0 0.0 0.00 0.00 0.00 1009.6
20260504030836 0 0.0 1.0 0.00 0.00 0.00 1009.5
20260504025807 0 1.0 3.0 0.00 0.00 0.00 1009.5
20260504024738 0 1.0 1.0 0.00 0.00 0.00 1009.5
20260504023709 0 0.0 1.0 0.00 0.00 0.00 1009.6
20260504022528 0 0.0 2.0 0.00 0.00 0.00 1009.6
20260504021459 0 0.0 1.0 0.00 0.00 0.00 1009.6
20260504020430 0 0.0 1.0 0.00 0.00 0.00 1009.8
20260504015401 0 0.0 1.0 0.00 0.00 0.00 1009.8
20260504014333 0 0.0 1.0 0.00 0.00 0.00 1009.8
20260504013304 0 0.0 1.0 0.00 0.00 0.00 1009.7
20260504012236 0 1.0 3.0 0.00 0.00 0.00 1009.8
20260504011205 0 0.0 1.0 0.00 0.00 0.00 1009.8
20260504010136 0 0.0 1.0 0.00 0.00 0.00 1009.8
20260504005107 0 0.0 1.0 0.00 0.00 0.00 1009.8
20260504003625 0 0.0 0.0 0.00 0.00 0.00 1010.1
20260504002556 0 0.0 4.0 0.00 0.00 0.00 1010.1
20260504001528 0 0.0 1.0 0.00 0.00 0.00 1010.2
20260504000356 0 0.0 2.0 0.00 0.00 0.00 1010.2
20260503235326 0 0.0 1.0 0.00 0.00 0.00 1010.4
20260503234256 0 0.0 4.0 0.00 0.00 0.00 1010.4
20260503233227 0 0.0 3.0 0.00 0.00 0.00 1010.6
20260503232158 0 0.0 4.0 0.00 0.00 0.00 1010.4
20260503231125 0 0.0 0.0 0.00 0.00 0.00 1010.5
20260503230056 0 0.0 1.0 0.00 0.00 0.00 1010.6
20260503225027 0 0.0 1.0 0.00 0.00 0.00 1010.7
20260503223957 0 0.0 1.0 0.00 0.00 0.00 1010.6
20260503222825 0 0.0 1.0 0.00 0.00 0.00 1010.4
20260503221756 0 1.0 2.0 0.00 0.00 0.00 1010.4
20260503220727 0 0.0 1.0 0.00 0.00 0.00 1010.4
20260503215451 0 0.0 1.0 0.00 0.00 0.00 1010.5
20260503214420 0 0.0 0.0 0.00 0.00 0.00 1010.5
20260503213248 0 0.0 1.0 0.00 0.00 0.00 1010.6
20260503212218 0 0.0 1.0 0.00 0.00 0.00 1010.7
20260503211045 0 0.0 1.0 0.00 0.00 0.00 1010.6
20260503210016 0 0.0 0.0 0.00 0.00 0.00 1010.6
20260503204805 0 0.0 1.0 0.00 0.00 0.00 1010.8